Regional Weather Roundup
Issued by NWS

Home | Current Version | Previous Version | Graphics & Text | Print | Product List | Glossary On
Versions: 1 2 3 4 5 6 7 8 9 10 11 12 13 14 15 16 17 18 19 20 21 22 23 24 25 26 27 28 29 30 31 32 33 34 35 36 37 38 39 40 41 42 43 44 45 46 47 48 49 50
000
ASUS43 KLMK 282310
RWRKY
KENTUCKY REGIONAL WEATHER ROUNDUP
NATIONAL WEATHER SERVICE LOUISVILLE KY
700 PM EDT SAT MAR 28 2015

NOTE "FAIR" INDICATES FEW OR NO CLOUDS BELOW 12,000 FEET
WITH NO SIGNIFICANT WEATHER AND/OR OBSTRUCTIONS TO VISIBILITY.

KYZ001>023-026-027-061>063-070>075-290000-
WESTERN AND SOUTH CENTRAL KENTUCKY

CITY           SKY/WX    TMP DP  RH WIND       PRES   REMARKS
PADUCAH        SUNNY     45  16  31 CALM      30.27R
HENDERSON      SUNNY     39  18  41 N3        30.30R
OWENSBORO      SUNNY     42  18  38 VRB6      30.30S
HOPKINSVILLE   SUNNY     44  12  27 NE6       30.26S
BOWLING GREEN  SUNNY     45   9  23 N3        30.27R
GLASGOW        SUNNY     43  14  31 NE6       30.26S
$$

KYZ024-025-028>034-038-045-046-053-290000-
NORTH CENTRAL KENTUCKY

CITY           SKY/WX    TMP DP  RH WIND       PRES   REMARKS
LOUISVILLE/SDF SUNNY     41  12  30 NE6       30.29R
LOUISVILLE/LOU SUNNY     41   9  26 N7        30.29R
FORT KNOX      SUNNY     40   9  28 VRB2      30.25S
$$

KYZ035>037-039>044-047>052-055>060-089>105-290000-
NORTHEAST KENTUCKY

CITY           SKY/WX    TMP DP  RH WIND       PRES   REMARKS
LEXINGTON      SUNNY     38  10  31 VRB7      30.27R WCI  33
COVINGTON      SUNNY     36   9  32 N9        30.28R WCI  29
FRANKFORT      SUNNY     40  10  29 NW5       30.26R
$$

KYZ054-064>069-076>088-106>120-290000-
SOUTHEAST KENTUCKY

CITY           SKY/WX    TMP DP  RH WIND       PRES   REMARKS
JACKSON        CLEAR     35   9  33 N8        30.23R WCI  29
LONDON         SUNNY     39   9  29 N12       30.24R WCI  32
SOMERSET       SUNNY     37  10  32 NE8       30.27R WCI  31
MIDDLESBORO    CLEAR     40  12  31 NW7       30.22R
MONTICELLO     CLEAR     42  14  32 N8        30.28R
$$




USA.gov is the U.S. government's official web portal to all federal, state and local government web resources and services.